Hourly Data Report for February 11, 2019

TORONTO CITY
ONTARIO
Current Station Operator: ECCC - MSC

43°40'00.000" N
79°24'00.000" W
112.50 m
6158355
71508
XTO

Download Data

Hourly Data (February 2019)
Hourly Data Report for February 11, 2019
TIME
LST
Temp Definition
°C
Dew Point Definition
°C
Rel Hum Definition
%
Precip. Amount Definition
mm

Wind Dir Definition
10's deg

Wind Spd Definition
km/h
Visibility Definition
km
Stn Press Definition
kPa
Hmdx Definition


Wind Chill Definition


Weather Definition


00:00 -4.2 -6.6 84 0.0 LegendMM LegendMM   101.29     LegendNANA
01:00 -4.2 -6.7 83 0.0 LegendMM LegendMM   101.24     LegendNANA
02:00 -4.2 -6.6 83 0.0 LegendMM LegendMM   101.24     LegendNANA
03:00 -4.4 -6.7 84 0.3 LegendMM LegendMM   101.21     LegendNANA
04:00 -4.6 -6.9 84 0.2 LegendMM LegendMM   101.17     LegendNANA
05:00 -4.6 -7.1 82 0.0 LegendMM LegendMM   101.21     LegendNANA
06:00 -4.6 -7.4 80 0.0 LegendMM LegendMM   101.23     LegendNANA
07:00 -4.5 -7.7 78 0.0 LegendMM LegendMM   101.27     LegendNANA
08:00 -4.7 -7.6 80 0.2 LegendMM LegendMM   101.33     LegendNANA
09:00 -4.5 -7.5 80 0.0 LegendMM LegendMM   101.36     LegendNANA
10:00 -4.3 -7.8 77 0.0 LegendMM LegendMM   101.39     LegendNANA
11:00 -4.1 -8.0 75 0.0 LegendMM LegendMM   101.40     LegendNANA
12:00 -3.8 -8.4 70 0.0 LegendMM LegendMM   101.42     LegendNANA
13:00 -3.6 -9.2 65 0.0 LegendMM LegendMM   101.39     LegendNANA
14:00 -3.1 -9.3 62 0.0 LegendMM LegendMM   101.36     LegendNANA
15:00 -3.4 -10.0 60 0.0 LegendMM LegendMM   101.34     LegendNANA
16:00 -3.2 -10.3 58 0.0 LegendMM LegendMM   101.38     LegendNANA
17:00 -3.2 -10.5 57 0.0 LegendMM LegendMM   101.38     LegendNANA
18:00 -3.1 -9.9 60 0.0 LegendMM LegendMM   101.46     LegendNANA
19:00 -3.3 -11.2 54 0.0 LegendMM LegendMM   101.53     LegendNANA
20:00 -3.6 -11.6 54 0.0 LegendMM LegendMM   101.50     LegendNANA
21:00 -3.4 -11.7 53 0.0 LegendMM LegendMM   101.47     LegendNANA
22:00 -3.5 -12.4 50 0.0 LegendMM LegendMM   101.51     LegendNANA
23:00 -4.2 -12.4 53 0.0 LegendMM LegendMM   101.45     LegendNANA

Notes on Data Quality.

Legend

  • E = Estimated
  • M = Missing
  • NA = Not Available*
  • [empty] = Indicates an unobserved value
Date modified: